Terug naar catalogus

STARLINK-30203

ActiefCommunicatieVLEO
NORAD 57498·PAYLOAD·🇺🇸 United States

Gelanceerd Aug 7, 2023 vanaf Cape Canaveral Space Force Station

Loading…

Volgende Passages (komende 24 uur)

TLE

VersSource: CelesTrak SupGP

Epoch: Sep 14, 2026, 21:17 UTC

1 57498C 23113D   26257.88729167  .00030448  00000+0  11022-2 0  2576
2 57498  43.0048  27.3501 0002174 273.1858  73.4461 15.27581214    12

Volg STARLINK-30203 in realtime met AllMySat

Download on the App Store